Time,TemperatureF,DewpointF,PressureIn,WindDirection,WindDirectionDegrees,WindSpeedMPH,WindSpeedGustMPH,Humidity,HourlyPrecipIn,Conditions,Clouds,dailyrainin,SoftwareType,DateUTC
2013-06-08 16:53:00,74.8,65.6,29.74,SSE,158,5.6,5.6,73,0.00,,,0.00,VWS V14.01,2013-06-08 06:53:00,
2013-06-08 16:54:00,74.8,65.6,29.74,SSE,158,6.0,6.0,73,0.00,,,0.00,VWS V14.01,2013-06-08 06:54:00,
2013-06-08 16:55:00,74.8,65.6,29.74,SSE,158,6.0,6.0,73,0.00,,,0.00,VWS V14.01,2013-06-08 06:55:00,
2013-06-08 16:57:00,74.8,65.6,29.74,SSE,158,6.0,6.0,73,0.00,,,0.00,VWS V14.01,2013-06-08 06:57:00,
2013-06-08 16:59:00,74.8,65.6,29.74,SSE,158,8.5,8.5,73,0.00,,,0.00,VWS V14.01,2013-06-08 06:59:00,
2013-06-08 17:05:00,74.7,65.8,29.74,SSE,158,8.5,8.5,74,0.00,,,0.00,VWS V14.01,2013-06-08 07:05:00,
2013-06-08 17:10:00,74.5,65.7,29.74,SSE,158,8.5,8.5,74,0.00,,,0.00,VWS V14.01,2013-06-08 07:10:00,
2013-06-08 17:15:00,74.7,65.8,29.74,SSE,158,8.5,8.5,74,0.00,,,0.00,VWS V14.01,2013-06-08 07:15:00,
2013-06-08 17:20:00,74.7,65.8,29.74,SSE,158,8.5,8.5,74,0.00,,,0.00,VWS V14.01,2013-06-08 07:20:00,
2013-06-08 17:25:00,74.5,65.3,29.74,SSE,158,8.5,8.5,73,0.00,,,0.00,VWS V14.01,2013-06-08 07:25:00,
2013-06-08 17:30:00,74.7,65.8,29.76,SSE,158,8.5,8.5,74,0.00,,,0.00,VWS V14.01,2013-06-08 07:30:00,
2013-06-08 17:35:00,74.7,65.8,29.76,SSE,158,8.5,8.5,74,0.00,,,0.00,VWS V14.01,2013-06-08 07:35:00,
2013-06-08 17:40:00,74.7,65.8,29.76,SSE,158,8.5,8.5,74,0.00,,,0.00,VWS V14.01,2013-06-08 07:40:00,
2013-06-08 17:45:00,74.8,66.0,29.76,SSE,158,8.5,8.5,74,0.00,,,0.00,VWS V14.01,2013-06-08 07:45:00,
2013-06-08 17:51:00,74.7,65.8,29.76,SSE,158,8.5,8.5,74,0.00,,,0.00,VWS V14.01,2013-06-08 07:51:00,
2013-06-08 17:56:00,74.7,65.8,29.76,NE,45,1.6,1.6,74,0.00,,,0.00,VWS V14.01,2013-06-08 07:56:00,
2013-06-08 18:01:00,74.7,65.8,29.76,NE,45,1.6,1.6,74,0.00,,,0.00,VWS V14.01,2013-06-08 08:01:00,
2013-06-08 18:06:00,74.5,66.0,29.76,NE,45,1.6,1.6,75,0.00,,,0.00,VWS V14.01,2013-06-08 08:06:00,
2013-06-08 18:11:00,73.9,65.9,29.76,NE,45,1.6,1.6,76,0.00,,,0.00,VWS V14.01,2013-06-08 08:11:00,
2013-06-08 18:16:00,73.6,65.9,29.76,NE,45,1.6,1.6,77,0.00,,,0.00,VWS V14.01,2013-06-08 08:16:00,
2013-06-08 18:21:00,73.0,66.2,29.76,NE,45,1.6,1.6,79,0.00,,,0.00,VWS V14.01,2013-06-08 08:21:00,
2013-06-08 18:26:00,73.2,66.3,29.76,SSW,202,2.5,2.5,79,0.00,,,0.00,VWS V14.01,2013-06-08 08:26:00,
2013-06-08 18:32:00,73.0,66.2,29.76,SSW,202,2.5,2.5,79,0.00,,,0.00,VWS V14.01,2013-06-08 08:32:00,
2013-06-08 18:37:00,72.7,66.2,29.76,SSW,202,2.5,2.5,80,0.00,,,0.00,VWS V14.01,2013-06-08 08:37:00,
2013-06-08 18:42:00,72.7,66.2,29.76,SSW,202,2.5,2.5,80,0.00,,,0.00,VWS V14.01,2013-06-08 08:42:00,
2013-06-08 18:47:00,72.7,66.2,29.76,SSW,202,2.5,2.5,80,0.00,,,0.00,VWS V14.01,2013-06-08 08:47:00,
2013-06-08 18:53:00,72.7,66.5,29.76,SSW,202,2.5,2.5,81,0.00,,,0.00,VWS V14.01,2013-06-08 08:53:00,
2013-06-08 18:58:00,72.7,66.5,29.76,SSW,202,2.5,2.5,81,0.00,,,0.00,VWS V14.01,2013-06-08 08:58:00,
2013-06-08 19:03:00,72.7,66.5,29.76,SSW,202,2.5,2.5,81,0.00,,,0.00,VWS V14.01,2013-06-08 09:03:00,
2013-06-08 19:08:00,72.7,66.5,29.76,SSW,202,2.5,2.5,81,0.00,,,0.00,VWS V14.01,2013-06-08 09:08:00,
2013-06-08 19:13:00,72.5,66.7,29.79,SSW,202,2.5,2.5,82,0.00,,,0.00,VWS V14.01,2013-06-08 09:13:00,
2013-06-08 19:18:00,72.7,66.5,29.79,SSW,202,2.5,2.5,81,0.00,,,0.00,VWS V14.01,2013-06-08 09:18:00,
2013-06-08 19:23:00,72.1,66.3,29.79,SSW,202,2.5,2.5,82,0.00,,,0.00,VWS V14.01,2013-06-08 09:23:00,
2013-06-08 19:28:00,72.1,66.3,29.79,SSW,202,2.5,2.5,82,0.04,,,0.04,VWS V14.01,2013-06-08 09:28:00,
2013-06-08 19:33:00,72.1,66.7,29.79,SSW,202,2.5,2.5,83,0.04,,,0.04,VWS V14.01,2013-06-08 09:33:00,
2013-06-08 19:38:00,72.0,66.5,29.79,SSW,202,2.5,2.5,83,0.04,,,0.04,VWS V14.01,2013-06-08 09:38:00,
2013-06-08 19:43:00,72.0,66.5,29.79,SSW,202,2.5,2.5,83,0.04,,,0.04,VWS V14.01,2013-06-08 09:43:00,
2013-06-08 19:48:00,72.0,66.5,29.79,SSW,202,2.5,2.5,83,0.04,,,0.04,VWS V14.01,2013-06-08 09:48:00,
2013-06-08 19:53:00,72.1,66.7,29.79,SSW,202,2.5,2.5,83,0.04,,,0.04,VWS V14.01,2013-06-08 09:53:00,
2013-06-08 19:58:00,72.0,66.5,29.79,SSW,202,2.5,2.5,83,0.04,,,0.04,VWS V14.01,2013-06-08 09:58:00,
2013-06-08 20:04:00,71.8,66.7,29.79,SSW,202,2.5,2.5,84,0.04,,,0.04,VWS V14.01,2013-06-08 10:04:00,
2013-06-08 20:09:00,71.6,66.9,29.79,SSW,202,2.5,2.5,85,0.04,,,0.04,VWS V14.01,2013-06-08 10:09:00,
2013-06-08 20:14:00,71.8,66.7,29.79,SSW,202,2.5,2.5,84,0.04,,,0.04,VWS V14.01,2013-06-08 10:14:00,
2013-06-08 20:19:00,71.8,67.0,29.79,SSW,202,2.5,2.5,85,0.04,,,0.04,VWS V14.01,2013-06-08 10:19:00,
2013-06-08 20:24:00,71.8,67.0,29.79,SSW,202,2.5,2.5,85,0.04,,,0.04,VWS V14.01,2013-06-08 10:24:00,
2013-06-08 20:29:00,71.8,67.0,29.79,SSW,202,2.5,2.5,85,0.00,,,0.04,VWS V14.01,2013-06-08 10:29:00,
2013-06-08 20:34:00,71.8,67.0,29.79,SSW,202,2.5,2.5,85,0.00,,,0.04,VWS V14.01,2013-06-08 10:34:00,
2013-06-08 20:39:00,71.8,67.0,29.79,SSW,202,2.5,2.5,85,0.00,,,0.04,VWS V14.01,2013-06-08 10:39:00,
2013-06-08 20:44:00,71.8,67.0,29.79,SSW,202,2.5,2.5,85,0.00,,,0.04,VWS V14.01,2013-06-08 10:44:00,
2013-06-08 20:49:00,71.8,67.0,29.79,SSW,202,2.5,2.5,85,0.00,,,0.04,VWS V14.01,2013-06-08 10:49:00,
2013-06-08 20:54:00,71.8,67.0,29.79,SSW,202,2.5,2.5,85,0.00,,,0.04,VWS V14.01,2013-06-08 10:54:00,
2013-06-08 20:59:00,71.8,66.7,29.79,SSW,202,2.5,2.5,84,0.00,,,0.04,VWS V14.01,2013-06-08 10:59:00,
2013-06-08 21:04:00,72.0,66.9,29.79,SSW,202,2.5,2.5,84,0.00,,,0.04,VWS V14.01,2013-06-08 11:04:00,
2013-06-08 21:09:00,72.0,66.5,29.79,SSW,202,2.5,2.5,83,0.00,,,0.04,VWS V14.01,2013-06-08 11:09:00,
2013-06-08 21:14:00,72.0,66.5,29.79,SSW,202,2.5,2.5,83,0.00,,,0.04,VWS V14.01,2013-06-08 11:14:00,
2013-06-08 21:19:00,72.0,66.5,29.79,SSW,202,2.5,2.5,83,0.00,,,0.04,VWS V14.01,2013-06-08 11:19:00,
2013-06-08 21:24:00,71.6,66.9,29.79,SSW,202,2.5,2.5,85,0.00,,,0.04,VWS V14.01,2013-06-08 11:24:00,
2013-06-08 21:30:00,71.6,66.9,29.79,SSW,202,2.5,2.5,85,0.00,,,0.04,VWS V14.01,2013-06-08 11:30:00,
2013-06-08 21:35:00,71.6,66.5,29.79,SSW,202,2.5,2.5,84,0.00,,,0.04,VWS V14.01,2013-06-08 11:35:00,
2013-06-08 21:40:00,71.6,66.9,29.79,SSW,202,2.5,2.5,85,0.00,,,0.04,VWS V14.01,2013-06-08 11:40:00,
2013-06-08 21:45:00,71.4,67.0,29.82,SSW,202,2.5,2.5,86,0.04,,,0.08,VWS V14.01,2013-06-08 11:45:00,
2013-06-08 21:50:00,71.4,67.3,29.82,SSW,202,2.5,2.5,87,0.04,,,0.08,VWS V14.01,2013-06-08 11:50:00,
2013-06-08 21:55:00,71.4,67.7,29.82,SSW,202,2.5,2.5,88,0.08,,,0.12,VWS V14.01,2013-06-08 11:55:00,
2013-06-08 22:01:00,71.2,67.5,29.79,SSW,202,2.5,2.5,88,0.12,,,0.16,VWS V14.01,2013-06-08 12:01:00,
2013-06-08 22:06:00,71.1,67.3,29.79,SSW,202,2.5,2.5,88,0.12,,,0.16,VWS V14.01,2013-06-08 12:06:00,
2013-06-08 22:11:00,71.1,67.0,29.79,SSW,202,2.5,2.5,87,0.12,,,0.16,VWS V14.01,2013-06-08 12:11:00,
2013-06-08 22:16:00,71.2,67.2,29.79,SSW,202,2.5,2.5,87,0.12,,,0.16,VWS V14.01,2013-06-08 12:16:00,
2013-06-08 22:21:00,71.1,67.0,29.79,SSW,202,2.5,2.5,87,0.12,,,0.16,VWS V14.01,2013-06-08 12:21:00,
2013-06-08 22:26:00,71.4,67.3,29.79,SSW,202,2.5,2.5,87,0.12,,,0.16,VWS V14.01,2013-06-08 12:26:00,
2013-06-08 22:31:00,71.4,67.0,29.79,SSW,202,2.5,2.5,86,0.12,,,0.16,VWS V14.01,2013-06-08 12:31:00,
2013-06-08 22:36:00,71.6,67.2,29.79,SSW,202,2.5,2.5,86,0.12,,,0.16,VWS V14.01,2013-06-08 12:36:00,
2013-06-08 22:41:00,71.8,67.0,29.79,SSW,202,2.5,2.5,85,0.12,,,0.16,VWS V14.01,2013-06-08 12:41:00,
2013-06-08 22:46:00,71.6,66.9,29.79,SSW,202,2.5,2.5,85,0.08,,,0.16,VWS V14.01,2013-06-08 12:46:00,
2013-06-08 22:51:00,71.6,66.9,29.79,SSW,202,2.5,2.5,85,0.08,,,0.16,VWS V14.01,2013-06-08 12:51:00,
2013-06-08 22:56:00,71.8,66.7,29.79,SSW,202,2.5,2.5,84,0.04,,,0.16,VWS V14.01,2013-06-08 12:56:00,
2013-06-08 23:01:00,71.8,66.7,29.79,SSW,202,2.5,2.5,84,0.00,,,0.16,VWS V14.01,2013-06-08 13:01:00,
2013-06-08 23:06:00,71.8,66.7,29.79,SSW,202,2.5,2.5,84,0.00,,,0.16,VWS V14.01,2013-06-08 13:06:00,
2013-06-08 23:12:00,72.0,66.5,29.79,SSW,202,2.5,2.5,83,0.00,,,0.16,VWS V14.01,2013-06-08 13:12:00,
2013-06-08 23:17:00,71.8,66.3,29.79,SSW,202,2.5,2.5,83,0.00,,,0.16,VWS V14.01,2013-06-08 13:17:00,
2013-06-08 23:22:00,72.0,66.5,29.79,SSW,202,2.5,2.5,83,0.00,,,0.16,VWS V14.01,2013-06-08 13:22:00,
2013-06-08 23:27:00,72.1,66.3,29.79,SSW,202,2.5,2.5,82,0.00,,,0.16,VWS V14.01,2013-06-08 13:27:00,
2013-06-08 23:32:00,72.0,66.2,29.79,SSW,202,2.5,2.5,82,0.00,,,0.16,VWS V14.01,2013-06-08 13:32:00,
2013-06-08 23:37:00,72.0,66.2,29.79,SSW,202,2.5,2.5,82,0.00,,,0.16,VWS V14.01,2013-06-08 13:37:00,
2013-06-08 23:42:00,72.1,66.0,29.79,SSW,202,2.5,2.5,81,0.00,,,0.16,VWS V14.01,2013-06-08 13:42:00,
2013-06-08 23:47:00,72.1,66.0,29.79,SSW,202,2.5,2.5,81,0.00,,,0.16,VWS V14.01,2013-06-08 13:47:00,
2013-06-08 23:53:00,72.1,66.0,29.79,SSW,202,2.5,2.5,81,0.00,,,0.16,VWS V14.01,2013-06-08 13:53:00,
2013-06-08 23:58:00,72.1,66.0,29.79,SSW,202,2.5,2.5,81,0.00,,,0.16,VWS V14.01,2013-06-08 13:58:00,